TimeMDT,TemperatureF,Dew PointF,Humidity,Sea Level PressureIn,VisibilityMPH,Wind Direction,Wind SpeedMPH,Gust SpeedMPH,PrecipitationIn,Events,Conditions,WindDirDegrees,DateUTC
12:53 AM,46.9,30.9,54,29.97,10.0,WSW,6.9,-,N/A,,Clear,240,2013-05-19 06:53:00
1:53 AM,43.0,34.0,71,30.00,10.0,West,6.9,-,N/A,,Mostly Cloudy,260,2013-05-19 07:53:00
2:03 AM,44.6,35.6,71,30.05,10.0,SW,4.6,-,N/A,,Overcast,220,2013-05-19 08:03:00
2:28 AM,46.4,35.6,66,30.05,10.0,SSE,5.8,-,N/A,,Overcast,150,2013-05-19 08:28:00
2:53 AM,45.0,34.0,65,29.99,10.0,SSW,5.8,-,N/A,,Overcast,200,2013-05-19 08:53:00
3:53 AM,45.0,32.0,60,29.98,10.0,SSW,9.2,-,N/A,,Overcast,200,2013-05-19 09:53:00
4:53 AM,46.0,32.0,58,29.99,10.0,WSW,6.9,-,0.00,Rain,Light Rain,240,2013-05-19 10:53:00
5:53 AM,44.6,37.4,76,30.06,10.0,SW,13.8,-,N/A,Rain,Light Rain,220,2013-05-19 11:53:00
6:53 AM,44.1,39.0,82,30.02,10.0,SW,13.8,-,0.00,,Mostly Cloudy,220,2013-05-19 12:53:00
7:53 AM,44.1,37.9,79,30.05,10.0,SW,20.7,-,N/A,,Overcast,230,2013-05-19 13:53:00
8:53 AM,45.0,39.9,82,30.07,10.0,WSW,17.3,-,0.00,,Mostly Cloudy,240,2013-05-19 14:53:00
9:53 AM,48.9,41.0,74,30.07,10.0,WSW,16.1,24.2,N/A,,Mostly Cloudy,250,2013-05-19 15:53:00
10:53 AM,48.9,42.1,77,30.08,8.0,WSW,17.3,-,0.00,Rain,Light Rain,240,2013-05-19 16:53:00
11:53 AM,55.9,41.0,57,30.07,10.0,West,23.0,28.8,0.00,,Mostly Cloudy,260,2013-05-19 17:53:00
12:53 PM,55.4,37.4,51,30.10,10.0,West,16.1,-,N/A,,Mostly Cloudy,260,2013-05-19 18:53:00
1:53 PM,51.8,42.8,71,30.11,10.0,WNW,11.5,-,N/A,Rain,Light Rain,290,2013-05-19 19:53:00
2:53 PM,48.0,44.1,86,30.08,10.0,South,10.4,-,0.13,,Overcast,170,2013-05-19 20:53:00
3:53 PM,52.0,43.0,71,30.06,10.0,SW,12.7,-,N/A,,Overcast,220,2013-05-19 21:53:00
4:53 PM,52.0,43.0,71,30.07,10.0,SW,9.2,-,N/A,,Mostly Cloudy,230,2013-05-19 22:53:00
5:53 PM,55.0,42.1,62,30.06,10.0,SE,8.1,-,N/A,,Mostly Cloudy,140,2013-05-19 23:53:00
6:53 PM,55.0,41.0,59,30.05,10.0,WSW,4.6,-,N/A,,Mostly Cloudy,240,2013-05-20 00:53:00
7:53 PM,53.1,43.0,69,30.07,10.0,West,6.9,-,0.00,,Mostly Cloudy,260,2013-05-20 01:53:00
8:53 PM,51.1,43.0,74,30.07,10.0,SSW,9.2,-,N/A,,Overcast,200,2013-05-20 02:53:00
9:53 PM,48.9,44.1,83,30.11,5.0,WSW,4.6,-,0.02,Rain,Rain,240,2013-05-20 03:53:00
10:53 PM,48.0,44.1,86,30.11,10.0,South,8.1,-,0.00,,Overcast,190,2013-05-20 04:53:00
11:53 PM,48.0,45.0,89,30.09,10.0,SSW,9.2,-,0.01,Rain,Light Rain,210,2013-05-20 05:53:00